Lake DuBay Weather Center

Moon Phase Calendar



Lake DuBay Water Level
Online Cameras

 


      

Current Conditions in Mosinee
3/4/2024 9:55:27 AM

44°F
Feels Like 38
Clouds
Humidity
65%
Pressure
29.94"
Wind
9.2 mph (NNW)
Dew Point
33°F
UV Index
2/10 (Low)
Visibility
6 mi

Hourly Forecast

Date & Time Mon, Mar 4
9:00 AM
Mon, Mar 4
10:00 AM
Mon, Mar 4
11:00 AM
Mon, Mar 4
12:00 PM
Mon, Mar 4
1:00 PM
Mon, Mar 4
2:00 PM
Mon, Mar 4
3:00 PM
Mon, Mar 4
4:00 PM
Mon, Mar 4
5:00 PM
Mon, Mar 4
6:00 PM
Mon, Mar 4
7:00 PM
Mon, Mar 4
8:00 PM
Mon, Mar 4
9:00 PM
Mon, Mar 4
10:00 PM
Mon, Mar 4
11:00 PM
Tue, Mar 5
12:00 AM
Tue, Mar 5
1:00 AM
Tue, Mar 5
2:00 AM
Tue, Mar 5
3:00 AM
Tue, Mar 5
4:00 AM
Tue, Mar 5
5:00 AM
Tue, Mar 5
6:00 AM
Tue, Mar 5
7:00 AM
Tue, Mar 5
8:00 AM
Tue, Mar 5
9:00 AM
Tue, Mar 5
10:00 AM
Tue, Mar 5
11:00 AM
Tue, Mar 5
12:00 PM
Tue, Mar 5
1:00 PM
Tue, Mar 5
2:00 PM
Tue, Mar 5
3:00 PM
Tue, Mar 5
4:00 PM
Tue, Mar 5
5:00 PM
Tue, Mar 5
6:00 PM
Tue, Mar 5
7:00 PM
Tue, Mar 5
8:00 PM
Tue, Mar 5
9:00 PM
Tue, Mar 5
10:00 PM
Tue, Mar 5
11:00 PM
Wed, Mar 6
12:00 AM
Wed, Mar 6
1:00 AM
Wed, Mar 6
2:00 AM
Wed, Mar 6
3:00 AM
Wed, Mar 6
4:00 AM
Wed, Mar 6
5:00 AM
Wed, Mar 6
6:00 AM
Wed, Mar 6
7:00 AM
Wed, Mar 6
8:00 AM
Condition
Clouds

Clouds

Clouds

Rain

Clouds

Rain

Rain

Rain

Rain

Rain

Rain

Rain

Rain

Clouds

Clouds

Clouds

Clouds

Clouds

Clouds

Clouds

Clouds

Clouds

Clouds

Clouds

Clouds

Clear

Clear

Clear

Clouds

Clouds

Clouds

Clouds

Clouds

Clouds

Clouds

Clouds

Clouds

Clouds

Clouds

Clouds

Clouds

Clouds

Clouds

Clouds

Clouds

Clouds

Clear

Clear
Temperature 43°F44°F44°F43°F43°F40°F39°F39°F37°F37°F37°F37°F37°F37°F36°F36°F36°F35°F33°F32°F31°F30°F31°F33°F36°F39°F41°F43°F45°F45°F46°F45°F43°F39°F37°F36°F35°F33°F32°F31°F30°F30°F30°F30°F29°F29°F30°F32°F
Feels Like 40°F40°F40°F38°F37°F34°F32°F32°F30°F30°F31°F33°F32°F37°F31°F30°F29°F28°F26°F25°F24°F23°F24°F26°F30°F33°F37°F40°F42°F43°F43°F42°F41°F36°F33°F31°F30°F27°F26°F25°F24°F24°F24°F23°F23°F23°F24°F26°F
Cloudiness 100%100%100%100%99%99%99%99%100%100%100%100%100%100%100%100%100%98%81%79%79%76%20%18%13%10%8%7%17%56%41%34%29%26%11%37%37%30%35%41%27%20%17%15%13%12%8%8%
Visibility 6 mi6 mi6 mi6 mi6 mi6 mi6 mi6 mi6 mi5 mi6 mi6 mi6 mi6 mi6 mi6 mi6 mi6 mi6 mi6 mi6 mi6 mi6 mi6 mi6 mi6 mi6 mi6 mi6 mi6 mi6 mi6 mi6 mi6 mi6 mi6 mi6 mi6 mi6 mi6 mi6 mi6 mi6 mi6 mi6 mi6 mi6 mi6 mi
Precipitation 0%0%0%24%47%75%98%99%100%100%100%100%100%78%78%78%3%3%2%2%0%0%0%0%0%0%0%0%0%0%0%0%0%0%0%0%0%0%0%0%0%0%0%0%0%0%0%0%
Humidity 62%65%62%64%65%75%86%85%91%94%95%97%97%96%96%96%93%91%92%91%89%85%81%70%59%54%50%48%45%44%43%45%56%63%69%72%75%80%82%80%75%71%67%65%63%61%61%52%
Dew Point 31°F33°F32°F32°F32°F33°F35°F35°F35°F36°F36°F36°F36°F36°F35°F35°F34°F32°F31°F29°F28°F26°F25°F24°F23°F24°F24°F25°F25°F25°F25°F25°F28°F28°F28°F28°F27°F27°F27°F26°F23°F21°F20°F19°F18°F18°F18°F16°F
Pressure 29.94"29.94"29.94"29.94"29.91"29.91"29.97"29.94"29.94"29.94"29.97"30"29.97"30"30.03"30"30.03"30.03"30.06"30.06"30.09"30.09"30.12"30.15"30.12"30.12"30.12"30.09"30.09"30.09"30.06"30.06"30.09"30.09"30.12"30.12"30.15"30.15"30.18"30.18"30.18"30.21"30.21"30.21"30.21"30.21"30.24"30.24"
Wind Speed 5.9 mph6.5 mph6.3 mph8.2 mph10 mph10.4 mph9.8 mph11.2 mph10.8 mph10.8 mph8.8 mph4.7 mph6.2 mph2.6 mph6.4 mph6.9 mph8.7 mph8.4 mph7.3 mph6.9 mph6.7 mph7.8 mph6.3 mph8.2 mph8.3 mph8.4 mph6.8 mph6 mph5.1 mph4.9 mph5.2 mph5.6 mph4.3 mph4.6 mph5.7 mph5.4 mph5.6 mph6.3 mph6.1 mph5.9 mph5.6 mph5.4 mph5.1 mph5.8 mph6.4 mph5.8 mph5.1 mph7.4 mph
Wind
Direction
349°
N
346°
NNW
12°
NNE
41°
NE
356°
N

N
357°
N

N

N

N
22°
NNE
38°
NE
43°
NE

N
343°
NNW

N
357°
N
10°
N
12°
NNE

N
15°
NNE
30°
NNE
19°
NNE
23°
NNE
45°
NE
59°
ENE
68°
ENE
70°
ENE
64°
ENE
48°
NE
52°
NE
48°
NE
53°
NE
70°
ENE
94°
E
94°
E
86°
E
90°
E
89°
E
79°
E
70°
ENE
70°
ENE
68°
ENE
70°
ENE
77°
ENE
77°
ENE
73°
ENE
76°
ENE

Daily Forecast

Date High Low Precip. Humidity
Today
Mar 4

Rain
45 °F
36 °F
100%
64%
Tuesday
Mar 5

Clear
46 °F
30 °F
78%
48%
Wednesday
Mar 6

Clouds
44 °F
29 °F
0%
35%
Thursday
Mar 7

Clouds
49 °F
32 °F
0%
60%
Friday
Mar 8

Snow
38 °F
32 °F
100%
99%
Saturday
Mar 9

Snow
35 °F
22 °F
100%
92%
Sunday
Mar 10

Clouds
36 °F
22 °F
0%
75%
Monday
Mar 11

Clouds
40 °F
25 °F
0%
60%
Tuesday
Mar 12

Clear
43 °F
26 °F
0%
43%
Wednesday
Mar 13

Clouds
43 °F
28 °F
0%
62%
Thursday
Mar 14

Clouds
53 °F
30 °F
0%
59%
Friday
Mar 15

Rain
56 °F
41 °F
100%
62%
Saturday
Mar 16

Snow
46 °F
33 °F
100%
99%
Sunday
Mar 17

Rain
38 °F
27 °F
20%
66%
Monday
Mar 18

Clouds
38 °F
24 °F
0%
47%
Tuesday
Mar 19

Clouds
50 °F
29 °F
26%
52%

Temperature 8-14 Day Outlook



Precipitation 8-14 Day Outlook




Quick Links
Lake DuBay News
Lake DuBay Photos
Lake DuBay Videos




About Us
Contact Us
Site Map
Search Site
Advertise With Us
   
DuBay.USLakes.info
THE LAKE DUBAY WEBSITE

Copyright 2024, Lakes Online
Privacy    |    Legal